Year,Month,Day,Hour,Minute,Value (Times are PST for temperature in C)
2018,09,04,00,00,11.90
2018,09,04,00,01,11.90
2018,09,04,00,02,11.90
2018,09,04,00,03,11.90
2018,09,04,00,04,11.90
2018,09,04,00,05,11.90
2018,09,04,00,06,11.90
2018,09,04,00,07,11.90
2018,09,04,00,08,11.90
2018,09,04,00,09,11.90
2018,09,04,00,10,11.90
2018,09,04,00,11,11.90
2018,09,04,00,12,11.90
2018,09,04,00,13,11.90
2018,09,04,00,14,11.90
2018,09,04,00,15,11.90
2018,09,04,00,16,11.90
2018,09,04,00,17,11.90
2018,09,04,00,18,11.80
2018,09,04,00,19,11.90
2018,09,04,00,20,11.90
2018,09,04,00,21,11.90
2018,09,04,00,22,11.80
2018,09,04,00,23,11.90
2018,09,04,00,24,11.90
2018,09,04,00,25,11.90
2018,09,04,00,26,11.90
2018,09,04,00,27,11.90
2018,09,04,00,28,11.90
2018,09,04,00,29,11.90
2018,09,04,00,30,11.90
2018,09,04,00,31,11.90
2018,09,04,00,32,11.90
2018,09,04,00,33,11.90
2018,09,04,00,34,11.90
2018,09,04,00,35,11.90
2018,09,04,00,36,11.90
2018,09,04,00,37,11.90
2018,09,04,00,38,11.90
2018,09,04,00,39,11.90
2018,09,04,00,40,11.90
2018,09,04,00,41,11.80
2018,09,04,00,42,11.90
2018,09,04,00,43,11.80
2018,09,04,00,44,11.80
2018,09,04,00,45,11.80
2018,09,04,00,46,11.80
2018,09,04,00,47,11.80
2018,09,04,00,48,11.80
2018,09,04,00,49,11.80
2018,09,04,00,50,11.80
2018,09,04,00,51,11.80
2018,09,04,00,52,11.80
2018,09,04,00,53,11.80
2018,09,04,00,54,11.80
2018,09,04,00,55,11.80
2018,09,04,00,56,11.80
2018,09,04,00,57,11.80
2018,09,04,00,58,11.80
2018,09,04,00,59,11.80
2018,09,04,01,00,11.80
2018,09,04,01,01,11.80
2018,09,04,01,02,11.80
2018,09,04,01,03,11.80
2018,09,04,01,04,11.80
2018,09,04,01,05,11.80
2018,09,04,01,06,11.80
2018,09,04,01,07,11.80
2018,09,04,01,08,11.80
2018,09,04,01,09,11.80
2018,09,04,01,10,11.80
2018,09,04,01,11,11.80
2018,09,04,01,12,11.80
2018,09,04,01,13,11.80
2018,09,04,01,14,11.80
2018,09,04,01,15,11.80
2018,09,04,01,16,11.80
2018,09,04,01,17,11.80
2018,09,04,01,18,11.80
2018,09,04,01,19,11.80
2018,09,04,01,20,11.80
2018,09,04,01,21,11.80
2018,09,04,01,22,11.80
2018,09,04,01,23,11.80
2018,09,04,01,24,11.80
2018,09,04,01,25,11.80
2018,09,04,01,26,11.80
2018,09,04,01,27,11.80
2018,09,04,01,28,11.80
2018,09,04,01,29,11.80
2018,09,04,01,30,11.70
2018,09,04,01,31,11.70
2018,09,04,01,32,11.70
2018,09,04,01,33,11.70
2018,09,04,01,34,11.80
2018,09,04,01,35,11.80
2018,09,04,01,36,11.80
2018,09,04,01,37,11.70
2018,09,04,01,38,11.70
2018,09,04,01,39,11.70
2018,09,04,01,40,11.70
2018,09,04,01,41,11.70
2018,09,04,01,42,11.70
2018,09,04,01,43,11.70
2018,09,04,01,44,11.70
2018,09,04,01,45,11.70
2018,09,04,01,46,11.70
2018,09,04,01,47,11.70
2018,09,04,01,48,11.70
2018,09,04,01,49,11.70
2018,09,04,01,50,11.70
2018,09,04,01,51,11.70
2018,09,04,01,52,11.70
2018,09,04,01,53,11.70
2018,09,04,01,54,11.70
2018,09,04,01,55,11.70
2018,09,04,01,56,11.70
2018,09,04,01,57,11.70
2018,09,04,01,58,11.70
2018,09,04,01,59,11.70
2018,09,04,02,00,11.70
2018,09,04,02,01,11.70
2018,09,04,02,02,11.70
2018,09,04,02,03,11.70
2018,09,04,02,04,11.70
2018,09,04,02,05,11.70
2018,09,04,02,06,11.70
2018,09,04,02,07,11.70
2018,09,04,02,08,11.80
2018,09,04,02,09,11.80
2018,09,04,02,10,11.80
2018,09,04,02,11,11.80
2018,09,04,02,12,11.80
2018,09,04,02,13,11.80
2018,09,04,02,14,11.80
2018,09,04,02,15,11.80
2018,09,04,02,16,11.80
2018,09,04,02,17,11.80
2018,09,04,02,18,11.90
2018,09,04,02,19,11.90
2018,09,04,02,20,11.90
2018,09,04,02,21,11.90
2018,09,04,02,22,11.90
2018,09,04,02,23,12.00
2018,09,04,02,24,12.00
2018,09,04,02,25,12.00
2018,09,04,02,26,12.00
2018,09,04,02,27,12.00
2018,09,04,02,28,12.00
2018,09,04,02,29,12.10
2018,09,04,02,30,12.10
2018,09,04,02,31,12.20
2018,09,04,02,32,12.20
2018,09,04,02,33,12.30
2018,09,04,02,34,12.40
2018,09,04,02,35,12.40
2018,09,04,02,36,12.50
2018,09,04,02,37,12.60
2018,09,04,02,38,12.70
2018,09,04,02,39,12.70
2018,09,04,02,40,12.80
2018,09,04,02,41,12.80
2018,09,04,02,42,12.90
2018,09,04,02,43,12.90
2018,09,04,02,44,12.90
2018,09,04,02,45,12.90
2018,09,04,02,46,12.90
2018,09,04,02,47,13.00
2018,09,04,02,48,13.00
2018,09,04,02,49,13.10
2018,09,04,02,50,13.10
2018,09,04,02,51,13.20
2018,09,04,02,52,13.20
2018,09,04,02,53,13.20
2018,09,04,02,54,13.20
2018,09,04,02,55,13.20
2018,09,04,02,56,13.20
2018,09,04,02,57,13.20
2018,09,04,02,58,13.20
2018,09,04,02,59,13.20
2018,09,04,03,00,13.20
2018,09,04,03,01,13.20
2018,09,04,03,02,13.20
2018,09,04,03,03,13.20
2018,09,04,03,04,13.20
2018,09,04,03,05,13.20
2018,09,04,03,06,13.20
2018,09,04,03,07,13.20
2018,09,04,03,08,13.30
2018,09,04,03,09,13.30
2018,09,04,03,10,13.40
2018,09,04,03,11,13.40
2018,09,04,03,12,13.50
2018,09,04,03,13,13.60
2018,09,04,03,14,13.70
2018,09,04,03,15,13.80
2018,09,04,03,16,13.80
2018,09,04,03,17,13.80
2018,09,04,03,18,13.80
2018,09,04,03,19,13.80
2018,09,04,03,20,13.80
2018,09,04,03,21,13.80
2018,09,04,03,22,13.80
2018,09,04,03,23,13.90
2018,09,04,03,24,13.90
2018,09,04,03,25,13.90
2018,09,04,03,26,13.90
2018,09,04,03,27,13.90
2018,09,04,03,28,13.90
2018,09,04,03,29,13.90
2018,09,04,03,30,13.90
2018,09,04,03,31,13.90
2018,09,04,03,32,13.90
2018,09,04,03,33,13.90
2018,09,04,03,34,13.90
2018,09,04,03,35,13.90
2018,09,04,03,36,13.90
2018,09,04,03,37,13.90
2018,09,04,03,38,13.90
2018,09,04,03,39,13.90
2018,09,04,03,40,13.90
2018,09,04,03,41,13.90
2018,09,04,03,42,13.90
2018,09,04,03,43,13.80
2018,09,04,03,44,13.80
2018,09,04,03,45,13.80
2018,09,04,03,46,13.80
2018,09,04,03,47,13.80
2018,09,04,03,48,13.80
2018,09,04,03,49,13.80
2018,09,04,03,50,13.80
2018,09,04,03,51,13.70
2018,09,04,03,52,13.70
2018,09,04,03,53,13.70
2018,09,04,03,54,13.70
2018,09,04,03,55,13.70
2018,09,04,03,56,13.70
2018,09,04,03,57,13.70
2018,09,04,03,58,13.70
2018,09,04,03,59,13.70
2018,09,04,04,00,13.70
2018,09,04,04,01,13.70
2018,09,04,04,02,13.70
2018,09,04,04,03,13.70
2018,09,04,04,04,13.70
2018,09,04,04,05,13.70
2018,09,04,04,06,13.80
2018,09,04,04,07,13.80
2018,09,04,04,08,13.80
2018,09,04,04,09,13.80
2018,09,04,04,10,13.80
2018,09,04,04,11,13.80
2018,09,04,04,12,13.80
2018,09,04,04,13,13.70
2018,09,04,04,14,13.70
2018,09,04,04,15,13.70
2018,09,04,04,16,13.70
2018,09,04,04,17,13.70
2018,09,04,04,18,13.60
2018,09,04,04,19,13.60
2018,09,04,04,20,13.60
2018,09,04,04,21,13.60
2018,09,04,04,22,13.50
2018,09,04,04,23,13.50
2018,09,04,04,24,13.50
2018,09,04,04,25,13.40
2018,09,04,04,26,13.40
2018,09,04,04,27,13.40
2018,09,04,04,28,13.40
2018,09,04,04,29,13.30
2018,09,04,04,30,13.30
2018,09,04,04,31,13.30
2018,09,04,04,32,13.30
2018,09,04,04,33,13.30
2018,09,04,04,34,13.20
2018,09,04,04,35,13.20
2018,09,04,04,36,13.20
2018,09,04,04,37,13.20
2018,09,04,04,38,13.20
2018,09,04,04,39,13.20
2018,09,04,04,40,13.10
2018,09,04,04,41,13.10
2018,09,04,04,42,13.10
2018,09,04,04,43,13.10
2018,09,04,04,44,13.10
2018,09,04,04,45,13.00
2018,09,04,04,46,13.00
2018,09,04,04,47,13.00
2018,09,04,04,48,13.00
2018,09,04,04,49,13.00
2018,09,04,04,50,12.90
2018,09,04,04,51,12.90
2018,09,04,04,52,12.90
2018,09,04,04,53,12.90
2018,09,04,04,54,12.90
2018,09,04,04,55,12.90
2018,09,04,04,56,12.80
2018,09,04,04,57,12.80
2018,09,04,04,58,12.80
2018,09,04,04,59,12.80
2018,09,04,05,00,12.80
2018,09,04,05,01,12.80
2018,09,04,05,02,12.80
2018,09,04,05,03,12.80
2018,09,04,05,04,12.80
2018,09,04,05,05,12.80
2018,09,04,05,06,12.80
2018,09,04,05,07,12.80
2018,09,04,05,08,12.80
2018,09,04,05,09,12.80
2018,09,04,05,10,12.80
2018,09,04,05,11,12.80
2018,09,04,05,12,12.80
2018,09,04,05,13,12.80
2018,09,04,05,14,12.80
2018,09,04,05,15,12.80
2018,09,04,05,16,12.80
2018,09,04,05,17,12.80
2018,09,04,05,18,12.80
2018,09,04,05,19,12.80
2018,09,04,05,20,12.80
2018,09,04,05,21,12.80
2018,09,04,05,22,12.80
2018,09,04,05,23,12.80
2018,09,04,05,24,12.80
2018,09,04,05,25,12.80
2018,09,04,05,26,12.80
2018,09,04,05,27,12.80
2018,09,04,05,28,12.80
2018,09,04,05,29,12.80
2018,09,04,05,30,12.80
2018,09,04,05,31,12.80
2018,09,04,05,32,12.80
2018,09,04,05,33,12.80
2018,09,04,05,34,12.80
2018,09,04,05,35,12.70
2018,09,04,05,36,12.70
2018,09,04,05,37,12.70
2018,09,04,05,38,12.70
2018,09,04,05,39,12.70
2018,09,04,05,40,12.70
2018,09,04,05,41,12.70
2018,09,04,05,42,12.70
2018,09,04,05,43,12.70
2018,09,04,05,44,12.70
2018,09,04,05,45,12.70
2018,09,04,05,46,12.70
2018,09,04,05,47,12.70
2018,09,04,05,48,12.70
2018,09,04,05,49,12.70
2018,09,04,05,50,12.70
2018,09,04,05,51,12.70
2018,09,04,05,52,12.70
2018,09,04,05,53,12.70
2018,09,04,05,54,12.70
2018,09,04,05,55,12.70
2018,09,04,05,56,12.70
2018,09,04,05,57,12.70
2018,09,04,05,58,12.60
2018,09,04,05,59,12.60
2018,09,04,06,00,12.60
2018,09,04,06,01,12.60
2018,09,04,06,02,12.60
2018,09,04,06,03,12.60
2018,09,04,06,04,12.60
2018,09,04,06,05,12.70
2018,09,04,06,06,12.70
2018,09,04,06,07,12.70
2018,09,04,06,08,12.70
2018,09,04,06,09,12.70
2018,09,04,06,10,12.70
2018,09,04,06,11,12.70
2018,09,04,06,12,12.70
2018,09,04,06,13,12.70
2018,09,04,06,14,12.70
2018,09,04,06,15,12.70
2018,09,04,06,16,12.70
2018,09,04,06,17,12.70
2018,09,04,06,18,12.70
2018,09,04,06,19,12.60
2018,09,04,06,20,12.60
2018,09,04,06,21,12.60
2018,09,04,06,22,12.60
2018,09,04,06,23,12.60
2018,09,04,06,24,12.60
2018,09,04,06,25,12.60
2018,09,04,06,26,12.70
2018,09,04,06,27,12.70
2018,09,04,06,28,12.70
2018,09,04,06,29,12.70
2018,09,04,06,30,12.70
2018,09,04,06,31,12.70
2018,09,04,06,32,12.80
2018,09,04,06,33,12.80
2018,09,04,06,34,12.80
2018,09,04,06,35,12.80
2018,09,04,06,36,12.80
2018,09,04,06,37,12.80
2018,09,04,06,38,12.80
2018,09,04,06,39,12.80
2018,09,04,06,40,12.80
2018,09,04,06,41,12.80
2018,09,04,06,42,12.80
2018,09,04,06,43,12.80
2018,09,04,06,44,12.80
2018,09,04,06,45,12.80
2018,09,04,06,46,12.80
2018,09,04,06,47,12.80
2018,09,04,06,48,12.80
2018,09,04,06,49,12.80
2018,09,04,06,50,12.80
2018,09,04,06,51,12.80
2018,09,04,06,52,12.80
2018,09,04,06,53,12.80
2018,09,04,06,54,12.80
2018,09,04,06,55,12.80
2018,09,04,06,56,12.80
2018,09,04,06,57,12.80
2018,09,04,06,58,12.80
2018,09,04,06,59,12.80
2018,09,04,07,00,12.80
2018,09,04,07,01,12.80
2018,09,04,07,02,12.80
2018,09,04,07,03,12.70
2018,09,04,07,04,12.70
2018,09,04,07,05,12.70
2018,09,04,07,06,12.70
2018,09,04,07,07,12.70
2018,09,04,07,08,12.70
2018,09,04,07,09,12.70
2018,09,04,07,10,12.70
2018,09,04,07,11,12.60
2018,09,04,07,12,12.60
2018,09,04,07,13,12.60
2018,09,04,07,14,12.60
2018,09,04,07,15,12.60
2018,09,04,07,16,12.60
2018,09,04,07,17,12.60
2018,09,04,07,18,12.60
2018,09,04,07,19,12.60
2018,09,04,07,20,12.60
2018,09,04,07,21,12.60
2018,09,04,07,22,12.60
2018,09,04,07,23,12.60
2018,09,04,07,24,12.60
2018,09,04,07,25,12.60
2018,09,04,07,26,12.60
2018,09,04,07,27,12.60
2018,09,04,07,28,12.70
2018,09,04,07,29,12.70
2018,09,04,07,30,12.70
2018,09,04,07,31,12.70
2018,09,04,07,32,12.80
2018,09,04,07,33,12.80
2018,09,04,07,34,12.90
2018,09,04,07,35,12.90
2018,09,04,07,36,12.90
2018,09,04,07,37,12.90
2018,09,04,07,38,12.90
2018,09,04,07,39,12.90
2018,09,04,07,40,13.00
2018,09,04,07,41,13.00
2018,09,04,07,42,13.00
2018,09,04,07,43,13.00
2018,09,04,07,44,13.00
2018,09,04,07,45,13.10
2018,09,04,07,46,13.10
2018,09,04,07,47,13.10
2018,09,04,07,48,13.10
2018,09,04,07,49,13.20
2018,09,04,07,50,13.20
2018,09,04,07,51,13.20
2018,09,04,07,52,13.20
2018,09,04,07,53,13.20
2018,09,04,07,54,13.20
2018,09,04,07,55,13.20
2018,09,04,07,56,13.20
2018,09,04,07,57,13.20
2018,09,04,07,58,13.30
2018,09,04,07,59,13.30
2018,09,04,08,00,13.30
2018,09,04,08,01,13.40
2018,09,04,08,02,13.40
2018,09,04,08,03,13.40
2018,09,04,08,04,13.50
2018,09,04,08,05,13.60
2018,09,04,08,06,13.60
2018,09,04,08,07,13.60
2018,09,04,08,08,13.60
2018,09,04,08,09,13.60
2018,09,04,08,10,13.60
2018,09,04,08,11,13.60
2018,09,04,08,12,13.60
2018,09,04,08,13,13.70
2018,09,04,08,14,13.70
2018,09,04,08,15,13.70
2018,09,04,08,16,13.70
2018,09,04,08,17,13.70
2018,09,04,08,18,13.80
2018,09,04,08,19,13.80
2018,09,04,08,20,13.80
2018,09,04,08,21,13.80
2018,09,04,08,22,13.90
2018,09,04,08,23,13.90
2018,09,04,08,24,13.90
2018,09,04,08,25,14.00
2018,09,04,08,26,14.00
2018,09,04,08,27,14.00
2018,09,04,08,28,14.00
2018,09,04,08,29,14.00
2018,09,04,08,30,14.10
2018,09,04,08,31,14.10
2018,09,04,08,32,14.10
2018,09,04,08,33,14.10
2018,09,04,08,34,14.10
2018,09,04,08,35,14.10
2018,09,04,08,36,14.20
2018,09,04,08,37,14.20
2018,09,04,08,38,14.20
2018,09,04,08,39,14.20
2018,09,04,08,40,14.20
2018,09,04,08,41,14.20
2018,09,04,08,42,14.20
2018,09,04,08,43,14.20
2018,09,04,08,44,14.20
2018,09,04,08,45,14.30
2018,09,04,08,46,14.30
2018,09,04,08,47,14.30
2018,09,04,08,48,14.30
2018,09,04,08,49,14.30
2018,09,04,08,50,14.30
2018,09,04,08,51,14.30
2018,09,04,08,52,14.30
2018,09,04,08,53,14.30
2018,09,04,08,54,14.30
2018,09,04,08,55,14.30
2018,09,04,08,56,14.30
2018,09,04,08,57,14.30
2018,09,04,08,58,14.30
2018,09,04,08,59,14.30
2018,09,04,09,00,14.30
2018,09,04,09,01,14.40
2018,09,04,09,02,14.40
2018,09,04,09,03,14.40
2018,09,04,09,04,14.40
2018,09,04,09,05,14.40
2018,09,04,09,06,14.40
2018,09,04,09,07,14.40
2018,09,04,09,08,14.40
2018,09,04,09,09,14.40
2018,09,04,09,10,14.40
2018,09,04,09,11,14.40
2018,09,04,09,12,14.40
2018,09,04,09,13,14.40
2018,09,04,09,14,14.40
2018,09,04,09,15,14.40
2018,09,04,09,16,14.40
2018,09,04,09,17,14.40
2018,09,04,09,18,14.40
2018,09,04,09,19,14.40
2018,09,04,09,20,14.40
2018,09,04,09,21,14.40
2018,09,04,09,22,14.50
2018,09,04,09,23,14.50
2018,09,04,09,24,14.50
2018,09,04,09,25,14.50
2018,09,04,09,26,14.50
2018,09,04,09,27,14.50
2018,09,04,09,28,14.50
2018,09,04,09,29,14.50
2018,09,04,09,30,14.50
2018,09,04,09,31,14.50
2018,09,04,09,32,14.60
2018,09,04,09,33,14.60
2018,09,04,09,34,14.60
2018,09,04,09,35,14.60
2018,09,04,09,36,14.60
2018,09,04,09,37,14.60
2018,09,04,09,38,14.60
2018,09,04,09,39,14.60
2018,09,04,09,40,14.60
2018,09,04,09,41,14.60
2018,09,04,09,42,14.70
2018,09,04,09,43,14.70
2018,09,04,09,44,14.70
2018,09,04,09,45,14.70
2018,09,04,09,46,14.70
2018,09,04,09,47,14.70
2018,09,04,09,48,14.80
2018,09,04,09,49,14.80
2018,09,04,09,50,14.80
2018,09,04,09,51,14.80
2018,09,04,09,52,14.90
2018,09,04,09,53,14.90
2018,09,04,09,54,15.00
2018,09,04,09,55,15.00
2018,09,04,09,56,15.10
2018,09,04,09,57,15.10
2018,09,04,09,58,15.20
2018,09,04,09,59,15.20
2018,09,04,10,00,15.20
2018,09,04,10,01,15.20
2018,09,04,10,02,15.30
2018,09,04,10,03,15.30
2018,09,04,10,04,15.30
2018,09,04,10,05,15.30
2018,09,04,10,06,15.30
2018,09,04,10,07,15.30
2018,09,04,10,08,15.30
2018,09,04,10,09,15.40
2018,09,04,10,10,15.40
2018,09,04,10,11,15.40
2018,09,04,10,12,15.40
2018,09,04,10,13,15.50
2018,09,04,10,14,15.50
2018,09,04,10,15,15.50
2018,09,04,10,16,15.60
2018,09,04,10,17,15.60
2018,09,04,10,18,15.60
2018,09,04,10,19,15.70
2018,09,04,10,20,15.70
2018,09,04,10,21,15.70
2018,09,04,10,22,15.80
2018,09,04,10,23,15.80
2018,09,04,10,24,15.80
2018,09,04,10,25,15.80
2018,09,04,10,26,15.90
2018,09,04,10,27,15.90
2018,09,04,10,28,15.90
2018,09,04,10,29,16.00
2018,09,04,10,30,16.00
2018,09,04,10,31,16.00
2018,09,04,10,32,16.00
2018,09,04,10,33,16.10
2018,09,04,10,34,16.10
2018,09,04,10,35,16.10
2018,09,04,10,36,16.10
2018,09,04,10,37,16.10
2018,09,04,10,38,16.10
2018,09,04,10,39,16.10
2018,09,04,10,40,16.10
2018,09,04,10,41,16.10
2018,09,04,10,42,16.10
2018,09,04,10,43,16.10
2018,09,04,10,44,16.10
2018,09,04,10,45,16.10
2018,09,04,10,46,16.10
2018,09,04,10,47,16.20
2018,09,04,10,48,16.20
2018,09,04,10,49,16.20
2018,09,04,10,50,16.20
2018,09,04,10,51,16.20
2018,09,04,10,52,16.20
2018,09,04,10,53,16.20
2018,09,04,10,54,16.30
2018,09,04,10,55,16.30
2018,09,04,10,56,16.30
2018,09,04,10,57,16.30
2018,09,04,10,58,16.30
2018,09,04,10,59,16.30
2018,09,04,11,00,16.30
2018,09,04,11,01,16.40
2018,09,04,11,02,16.40
2018,09,04,11,03,16.40
2018,09,04,11,04,16.40
2018,09,04,11,05,16.50
2018,09,04,11,06,16.50
2018,09,04,11,07,16.60
2018,09,04,11,08,16.60
2018,09,04,11,09,16.60
2018,09,04,11,10,16.70
2018,09,04,11,11,16.70
2018,09,04,11,12,16.70
2018,09,04,11,13,16.70
2018,09,04,11,14,16.70
2018,09,04,11,15,16.70
2018,09,04,11,16,16.70
2018,09,04,11,17,16.70
2018,09,04,11,18,16.70
2018,09,04,11,19,16.70
2018,09,04,11,20,16.80
2018,09,04,11,21,16.80
2018,09,04,11,22,16.80
2018,09,04,11,23,16.80
2018,09,04,11,24,16.80
2018,09,04,11,25,16.80
2018,09,04,11,26,16.90
2018,09,04,11,27,16.90
2018,09,04,11,28,16.90
2018,09,04,11,29,16.90
2018,09,04,11,30,17.00
2018,09,04,11,31,17.00
2018,09,04,11,32,17.00
2018,09,04,11,33,17.10
2018,09,04,11,34,17.10
2018,09,04,11,35,17.20
2018,09,04,11,36,17.20
2018,09,04,11,37,17.20
2018,09,04,11,38,17.30
2018,09,04,11,39,17.30
2018,09,04,11,40,17.40
2018,09,04,11,41,17.40
2018,09,04,11,42,17.40
2018,09,04,11,43,17.50
2018,09,04,11,44,17.50
2018,09,04,11,45,17.60
2018,09,04,11,46,17.70
2018,09,04,11,47,17.70
2018,09,04,11,48,17.80
2018,09,04,11,49,17.80
2018,09,04,11,50,17.80
2018,09,04,11,51,17.80
2018,09,04,11,52,17.90
2018,09,04,11,53,17.90
2018,09,04,11,54,17.90
2018,09,04,11,55,17.90
2018,09,04,11,56,17.90
2018,09,04,11,57,17.90
2018,09,04,11,58,17.90
2018,09,04,11,59,17.90
2018,09,04,12,00,18.00
2018,09,04,12,01,18.00
2018,09,04,12,02,18.00
2018,09,04,12,03,18.00
2018,09,04,12,04,18.00
2018,09,04,12,05,18.00
2018,09,04,12,06,18.00
2018,09,04,12,07,18.10
2018,09,04,12,08,18.10
2018,09,04,12,09,18.10
2018,09,04,12,10,18.10
2018,09,04,12,11,18.20
2018,09,04,12,12,18.20
2018,09,04,12,13,18.30
2018,09,04,12,14,18.30
2018,09,04,12,15,18.30
2018,09,04,12,16,18.40
2018,09,04,12,17,18.50
2018,09,04,12,18,18.50
2018,09,04,12,19,18.60
2018,09,04,12,20,18.60
2018,09,04,12,21,18.60
2018,09,04,12,22,18.60
2018,09,04,12,23,18.70
2018,09,04,12,24,18.70
2018,09,04,12,25,18.80
2018,09,04,12,26,18.80
2018,09,04,12,27,18.80
2018,09,04,12,28,18.90
2018,09,04,12,29,18.90
2018,09,04,12,30,18.90
2018,09,04,12,31,18.90
2018,09,04,12,32,18.90
2018,09,04,12,33,19.00
2018,09,04,12,34,19.10
2018,09,04,12,35,19.10
2018,09,04,12,36,19.10
2018,09,04,12,37,19.10
2018,09,04,12,38,19.10
2018,09,04,12,39,19.10
2018,09,04,12,40,19.20
2018,09,04,12,41,19.20
2018,09,04,12,42,19.20
2018,09,04,12,43,19.30
2018,09,04,12,44,19.30
2018,09,04,12,45,19.30
2018,09,04,12,46,19.40
2018,09,04,12,47,19.40
2018,09,04,12,48,19.50
2018,09,04,12,49,19.60
2018,09,04,12,50,19.70
2018,09,04,12,51,19.70
2018,09,04,12,52,19.80
2018,09,04,12,53,19.80
2018,09,04,12,54,19.80
2018,09,04,12,55,19.80
2018,09,04,12,56,19.90
2018,09,04,12,57,19.90
2018,09,04,12,58,19.90
2018,09,04,12,59,19.90
2018,09,04,13,00,19.90
2018,09,04,13,01,19.90
2018,09,04,13,02,19.90
2018,09,04,13,03,19.90
2018,09,04,13,04,19.90
2018,09,04,13,05,19.90
2018,09,04,13,06,20.00
2018,09,04,13,07,20.10
2018,09,04,13,08,20.10
2018,09,04,13,09,20.20
2018,09,04,13,10,20.30
2018,09,04,13,11,20.30
2018,09,04,13,12,20.30
2018,09,04,13,13,20.40
2018,09,04,13,14,20.40
2018,09,04,13,15,20.40
2018,09,04,13,16,20.40
2018,09,04,13,17,20.40
2018,09,04,13,18,20.50
2018,09,04,13,19,20.50
2018,09,04,13,20,20.50
2018,09,04,13,21,20.50
2018,09,04,13,22,20.60
2018,09,04,13,23,20.60
2018,09,04,13,24,20.70
2018,09,04,13,25,20.70
2018,09,04,13,26,20.80
2018,09,04,13,27,20.80
2018,09,04,13,28,20.90
2018,09,04,13,29,20.90
2018,09,04,13,30,20.90
2018,09,04,13,31,21.00
2018,09,04,13,32,21.00
2018,09,04,13,33,21.10
2018,09,04,13,34,21.10
2018,09,04,13,35,21.10
2018,09,04,13,36,21.10
2018,09,04,13,37,21.10
2018,09,04,13,38,21.00
2018,09,04,13,39,21.00
2018,09,04,13,40,21.00
2018,09,04,13,41,21.00
2018,09,04,13,42,21.00
2018,09,04,13,43,21.00
2018,09,04,13,44,20.90
2018,09,04,13,45,20.90
2018,09,04,13,46,20.90
2018,09,04,13,47,20.90
2018,09,04,13,48,20.90
2018,09,04,13,49,20.80
2018,09,04,13,50,20.80
2018,09,04,13,51,20.80
2018,09,04,13,52,20.80
2018,09,04,13,53,20.70
2018,09,04,13,54,20.70
2018,09,04,13,55,20.60
2018,09,04,13,56,20.60
2018,09,04,13,57,20.60
2018,09,04,13,58,20.60
2018,09,04,13,59,20.50
2018,09,04,14,00,20.50
2018,09,04,14,01,20.50
2018,09,04,14,02,20.40
2018,09,04,14,03,20.40
2018,09,04,14,04,20.40
2018,09,04,14,05,20.40
2018,09,04,14,06,20.40
2018,09,04,14,07,20.30
2018,09,04,14,08,20.30
2018,09,04,14,09,20.30
2018,09,04,14,10,20.30
2018,09,04,14,11,20.30
2018,09,04,14,12,20.30
2018,09,04,14,13,20.30
2018,09,04,14,14,20.30
2018,09,04,14,15,20.30
2018,09,04,14,16,20.30
2018,09,04,14,17,20.20
2018,09,04,14,18,20.20
2018,09,04,14,19,20.20
2018,09,04,14,20,20.10
2018,09,04,14,21,20.10
2018,09,04,14,22,20.10
2018,09,04,14,23,20.10
2018,09,04,14,24,20.10
2018,09,04,14,25,20.10
2018,09,04,14,26,20.10
2018,09,04,14,27,20.10
2018,09,04,14,28,20.10
2018,09,04,14,29,20.10
2018,09,04,14,30,20.10
2018,09,04,14,31,20.10
2018,09,04,14,32,20.10
2018,09,04,14,33,20.10
2018,09,04,14,34,20.10
2018,09,04,14,35,20.10
2018,09,04,14,36,20.10
2018,09,04,14,37,20.10
2018,09,04,14,38,20.10
2018,09,04,14,39,20.10
2018,09,04,14,40,20.10
2018,09,04,14,41,20.20
2018,09,04,14,42,20.20
2018,09,04,14,43,20.20
2018,09,04,14,44,20.20
2018,09,04,14,45,20.20
2018,09,04,14,46,20.30
2018,09,04,14,47,20.30
2018,09,04,14,48,20.30
2018,09,04,14,49,20.30
2018,09,04,14,50,20.40
2018,09,04,14,51,20.50
2018,09,04,14,52,20.50
2018,09,04,14,53,20.60
2018,09,04,14,54,20.70
2018,09,04,14,55,20.80
2018,09,04,14,56,20.80
2018,09,04,14,57,20.90
2018,09,04,14,58,20.90
2018,09,04,14,59,21.00
2018,09,04,15,00,21.00
2018,09,04,15,01,21.10
2018,09,04,15,02,21.10
2018,09,04,15,03,21.10
2018,09,04,15,04,21.20
2018,09,04,15,05,21.20
2018,09,04,15,06,21.20
2018,09,04,15,07,21.20
2018,09,04,15,08,21.30
2018,09,04,15,09,21.30
2018,09,04,15,10,21.30
2018,09,04,15,11,21.30
2018,09,04,15,12,21.40
2018,09,04,15,13,21.40
2018,09,04,15,14,21.40
2018,09,04,15,15,21.50
2018,09,04,15,16,21.50
2018,09,04,15,17,21.60
2018,09,04,15,18,21.60
2018,09,04,15,19,21.70
2018,09,04,15,20,21.70
2018,09,04,15,21,21.70
2018,09,04,15,22,21.80
2018,09,04,15,23,21.80
2018,09,04,15,24,21.80
2018,09,04,15,25,21.90
2018,09,04,15,26,21.90
2018,09,04,15,27,21.90
2018,09,04,15,28,22.00
2018,09,04,15,29,22.00
2018,09,04,15,30,22.10
2018,09,04,15,31,22.10
2018,09,04,15,32,22.20
2018,09,04,15,33,22.20
2018,09,04,15,34,22.30
2018,09,04,15,35,22.30
2018,09,04,15,36,22.40
2018,09,04,15,37,22.40
2018,09,04,15,38,22.40
2018,09,04,15,39,22.50
2018,09,04,15,40,22.50
2018,09,04,15,41,22.60
2018,09,04,15,42,22.60
2018,09,04,15,43,22.60
2018,09,04,15,44,22.60
2018,09,04,15,45,22.70
2018,09,04,15,46,22.70
2018,09,04,15,47,22.70
2018,09,04,15,48,22.70
2018,09,04,15,49,22.70
2018,09,04,15,50,22.70
2018,09,04,15,51,22.70
2018,09,04,15,52,22.70
2018,09,04,15,53,22.70
2018,09,04,15,54,22.70
2018,09,04,15,55,22.70
2018,09,04,15,56,22.70
2018,09,04,15,57,22.70
2018,09,04,15,58,22.70
2018,09,04,15,59,22.60
2018,09,04,16,00,22.60
2018,09,04,16,01,22.60
2018,09,04,16,02,22.60
2018,09,04,16,03,22.60
2018,09,04,16,04,22.50
2018,09,04,16,05,22.50
2018,09,04,16,06,22.50
2018,09,04,16,07,22.50
2018,09,04,16,08,22.40
2018,09,04,16,09,22.40
2018,09,04,16,10,22.40
2018,09,04,16,11,22.40
2018,09,04,16,12,22.40
2018,09,04,16,13,22.40
2018,09,04,16,14,22.40
2018,09,04,16,15,22.40
2018,09,04,16,16,22.40
2018,09,04,16,17,22.40
2018,09,04,16,18,22.40
2018,09,04,16,19,22.40
2018,09,04,16,20,22.40
2018,09,04,16,21,22.40
2018,09,04,16,22,22.40
2018,09,04,16,23,22.40
2018,09,04,16,24,22.40
2018,09,04,16,25,22.40
2018,09,04,16,26,22.30
2018,09,04,16,27,22.30
2018,09,04,16,28,22.30
2018,09,04,16,29,22.30
2018,09,04,16,30,22.30
2018,09,04,16,31,22.30
2018,09,04,16,32,22.30
2018,09,04,16,33,22.30
2018,09,04,16,34,22.30
2018,09,04,16,35,22.20
2018,09,04,16,36,22.20
2018,09,04,16,37,22.20
2018,09,04,16,38,22.20
2018,09,04,16,39,22.20
2018,09,04,16,40,22.10
2018,09,04,16,41,22.10
2018,09,04,16,42,22.10
2018,09,04,16,43,22.10
2018,09,04,16,44,22.10
2018,09,04,16,45,22.10
2018,09,04,16,46,22.10
2018,09,04,16,47,22.10
2018,09,04,16,48,22.10
2018,09,04,16,49,22.10
2018,09,04,16,50,22.10
2018,09,04,16,51,22.10
2018,09,04,16,52,22.10
2018,09,04,16,53,22.10
2018,09,04,16,54,22.00
2018,09,04,16,55,22.00
2018,09,04,16,56,22.00
2018,09,04,16,57,22.00
2018,09,04,16,58,21.90
2018,09,04,16,59,21.90
2018,09,04,17,00,21.90
2018,09,04,17,01,21.90
2018,09,04,17,02,21.90
2018,09,04,17,03,21.90
2018,09,04,17,04,21.90
2018,09,04,17,05,21.90
2018,09,04,17,06,21.90
2018,09,04,17,07,21.90
2018,09,04,17,08,21.90
2018,09,04,17,09,21.90
2018,09,04,17,10,21.90
2018,09,04,17,11,21.90
2018,09,04,17,12,21.90
2018,09,04,17,13,21.90
2018,09,04,17,14,21.90
2018,09,04,17,15,21.90
2018,09,04,17,16,21.90
2018,09,04,17,17,21.90
2018,09,04,17,18,21.90
2018,09,04,17,19,21.90